Other Surface Observations
Issued by NWS

Home | Current Version | Previous Version | Text Only | Print | Product List | Glossary On
Versions: 1 2 3 4 5 6 7 8 9 10 11 12 13 14 15 16 17 18 19 20 21 22 23 24 25 26 27 28 29 30 31 32 33 34 35 36 37 38 39 40 41 42 43 44 45 46 47 48 49 50
227
SXUS52 KTAE 011818
OSOTAE
OSOTAE
North Florida/South Alabama/Southwest Georgia Weather Roundup
National Weather Service Tallahassee Florida
200 PM EDT SAT OCT 01 2016

Note: "fair" indicates few or no clouds below 12,000 feet with no
significant weather and/or obstructions to visibility.

!FLZ017-115-028-034-025-011900
...North Florida...

CITY           SKY/WX    TMP DP  RH WIND       PRES   REMARKS
TALLAHASSEE    MOSUNNY   83  51  33 VRB5      30.05F
APALACHICOLA   SUNNY     81  58  45 S8        30.06F
PERRY          MOSUNNY   84  54  34 NW3       30.05F
CROSS CITY     SUNNY     84  59  42 SW6       30.04F
JACKSONVILLE   MOSUNNY   88  61  40 N5        30.03F
$$

!FLZ112-006-005-002-011-011900
...Florida Panhandle...

CITY           SKY/WX    TMP DP  RH WIND       PRES   REMARKS
MARIANNA       SUNNY     80  54  40 E3        30.05F
BONIFAY        FAIR      81  52  36 N6        30.06F
PANAMA CITY NW FAIR      81  51  35 VRB6      30.05F
TYNDALL AFB    SUNNY     80  55  41 VRB5      30.05F
TYND DRONE APT FAIR      79  56  44 N7        30.06F
DE FUNIAK SPR  FAIR      78  52  39 CALM      30.07F
EGLIN AFB      MOSUNNY   82  50  33 N6        30.05F
DESTIN         SUNNY     84  52  33 CALM      30.06F
HURLBURT       SUNNY     80  54  40 S7        30.05F
CRESTVIEW      SUNNY     80  52  37 N8        30.08F
PENSACOLA      SUNNY     82  55  39 N7        30.06F
$$

!ALZ063-066-011900
...South Alabama...

CITY           SKY/WX    TMP DP  RH WIND       PRES   REMARKS
DOTHAN         SUNNY     81  50  33 NW8       30.10F
OZARK CAIRNS   SUNNY     78  53  41 W3        30.06F
FT RUCKER HELI SUNNY     78  53  41 SE6       30.06F
RUCKER HELI 3  NOT AVBL
RUCKER HELI 2  FAIR      79  50  36 CALM      30.06F
FLORALA APT    SUNNY     78  53  41 NE6       30.08F
ANDALUSIA      SUNNY     83  51  33 N8        30.07F
TROY           SUNNY     79  49  34 CALM      30.08F
EUFALA         FAIR      84  47  27 NE9       30.05F
MOBILE         MOSUNNY   80  56  43 CALM      30.07F
$$

!GAZ120>161-011900
...Southwest and South Central Georgia...

CITY           SKY/WX    TMP DP  RH WIND       PRES   REMARKS
THOMASVILLE    FAIR      81  55  41 SW3       30.07F
BAINBRIDGE     SUNNY     81  52  36 NW6       30.06F
MOODY AFB      SUNNY     82  49  30 S3        30.04F
VALDOSTA       SUNNY     83  50  31 SE3       30.05F
MOULTRIE       SUNNY     79  52  38 CALM      30.07F
BLAKELY        SUNNY     82  50  32 CALM      30.06F
ALBANY         SUNNY     82  50  32 VRB5      30.07F
TIFTON         FAIR      80  52  38 S3        30.06F
FITZGERALD       N/A     84  56  38 NW6       30.09F
CORDELE        FAIR      83  48  29 N3        30.06F
AMERICUS       FAIR      79  41  25 CALM      30.08F
HOMERVILLE     FAIR      84  54  34 W6        30.05F
$$

!GMZ750-755-770-775-011900
...Coastal and Buoy Obs...

STATION/POSITION TIME  TEMP    WIND        PRES    VSBY  WAVE
                       AIR SEA DIR/SP/G                  HT/PER
                 (UTC) (F)     (DEG/KT/KT) (MB)    (MI)  (FT/S)
KEATON BEACH     1800   80     280/  5/  7 1017.1F
CEDAR KEY        1800   81     240/  4/  5 1017.7F
C TOWER          1800   76      30/  6/  7 1018.3F
APALACHICOLA BUO 1750   81 84   40/  8/ 12 1017.0F         1/ 4
PANAMA CITY BUOY 1750   77 84              1017.9F         2/ 4
MOBILE BUOY      1800   79 84   60/  8/ 12 1017.1F
ORANGE BCH AL BU 1750   77 84   40/  6/  8 1018.5F         1
$$




USA.gov is the U.S. government's official web portal to all federal, state and local government web resources and services.